owner,sensor,date,latitude,longitude,air_temperature,qcFlag 
DISL,ioos:station:DISL:MHPA:1,2014-11-01T00:00:00Z,30.6671,-87.9365,19.64,1111122 
DISL,ioos:station:DISL:MHPA:1,2014-11-01T00:30:00Z,30.6671,-87.9365,19.1,1111122 
DISL,ioos:station:DISL:MHPA:1,2014-11-01T01:00:00Z,30.6671,-87.9365,18.78,1111122 
DISL,ioos:station:DISL:MHPA:1,2014-11-01T01:30:00Z,30.6671,-87.9365,18.1,1111122 
DISL,ioos:station:DISL:MHPA:1,2014-11-01T02:00:00Z,30.6671,-87.9365,17.56,1111122 
DISL,ioos:station:DISL:MHPA:1,2014-11-01T02:30:00Z,30.6671,-87.9365,17.09,1111122 
DISL,ioos:station:DISL:MHPA:1,2014-11-01T03:00:00Z,30.6671,-87.9365,16.38,1111122 
DISL,ioos:station:DISL:MHPA:1,2014-11-01T03:30:00Z,30.6671,-87.9365,15.44,1111122 
DISL,ioos:station:DISL:MHPA:1,2014-11-01T04:00:00Z,30.6671,-87.9365,14.71,1111122 
DISL,ioos:station:DISL:MHPA:1,2014-11-01T04:30:00Z,30.6671,-87.9365,14.0,1111122 
DISL,ioos:station:DISL:MHPA:1,2014-11-01T05:00:00Z,30.6671,-87.9365,13.26,1111122 
DISL,ioos:station:DISL:MHPA:1,2014-11-01T05:30:00Z,30.6671,-87.9365,12.69,1111122 
DISL,ioos:station:DISL:MHPA:1,2014-11-01T06:00:00Z,30.6671,-87.9365,12.2,1111122 
DISL,ioos:station:DISL:MHPA:1,2014-11-01T06:30:00Z,30.6671,-87.9365,11.55,1111122 
DISL,ioos:station:DISL:MHPA:1,2014-11-01T07:00:00Z,30.6671,-87.9365,10.14,1111122 
DISL,ioos:station:DISL:MHPA:1,2014-11-01T07:30:00Z,30.6671,-87.9365,8.93,1111122 
DISL,ioos:station:DISL:MHPA:1,2014-11-01T08:00:00Z,30.6671,-87.9365,8.26,1111122 
DISL,ioos:station:DISL:MHPA:1,2014-11-01T08:30:00Z,30.6671,-87.9365,8.03,1111122 
DISL,ioos:station:DISL:MHPA:1,2014-11-01T09:00:00Z,30.6671,-87.9365,7.693,1111122 
DISL,ioos:station:DISL:MHPA:1,2014-11-01T09:30:00Z,30.6671,-87.9365,7.26,1111122 
DISL,ioos:station:DISL:MHPA:1,2014-11-01T10:00:00Z,30.6671,-87.9365,6.687,1111122 
DISL,ioos:station:DISL:MHPA:1,2014-11-01T10:30:00Z,30.6671,-87.9365,6.383,1111122 
DISL,ioos:station:DISL:MHPA:1,2014-11-01T11:00:00Z,30.6671,-87.9365,6.011,1111122 
DISL,ioos:station:DISL:MHPA:1,2014-11-01T11:30:00Z,30.6671,-87.9365,5.746,1111122 
DISL,ioos:station:DISL:MHPA:1,2014-11-01T12:00:00Z,30.6671,-87.9365,5.344,1111122 
DISL,ioos:station:DISL:MHPA:1,2014-11-01T12:30:00Z,30.6671,-87.9365,5.146,1111122 
DISL,ioos:station:DISL:MHPA:1,2014-11-01T13:00:00Z,30.6671,-87.9365,5.482,1111122 
DISL,ioos:station:DISL:MHPA:1,2014-11-01T13:30:00Z,30.6671,-87.9365,5.781,1111122 
DISL,ioos:station:DISL:MHPA:1,2014-11-01T14:00:00Z,30.6671,-87.9365,6.146,1111122 
DISL,ioos:station:DISL:MHPA:1,2014-11-01T14:30:00Z,30.6671,-87.9365,7.025,1111122 
DISL,ioos:station:DISL:MHPA:1,2014-11-01T15:00:00Z,30.6671,-87.9365,7.795,1111122 
DISL,ioos:station:DISL:MHPA:1,2014-11-01T15:30:00Z,30.6671,-87.9365,8.23,1111122 
DISL,ioos:station:DISL:MHPA:1,2014-11-01T16:00:00Z,30.6671,-87.9365,9.1,1111122 
DISL,ioos:station:DISL:MHPA:1,2014-11-01T16:30:00Z,30.6671,-87.9365,9.77,1111122 
DISL,ioos:station:DISL:MHPA:1,2014-11-01T17:00:00Z,30.6671,-87.9365,10.37,1111122 
DISL,ioos:station:DISL:MHPA:1,2014-11-01T17:30:00Z,30.6671,-87.9365,11.52,1111122 
DISL,ioos:station:DISL:MHPA:1,2014-11-01T18:00:00Z,30.6671,-87.9365,12.56,1111122 
DISL,ioos:station:DISL:MHPA:1,2014-11-01T18:30:00Z,30.6671,-87.9365,12.66,1111122 
DISL,ioos:station:DISL:MHPA:1,2014-11-01T19:00:00Z,30.6671,-87.9365,13.04,1111122 
DISL,ioos:station:DISL:MHPA:1,2014-11-01T19:30:00Z,30.6671,-87.9365,13.81,1111122 
DISL,ioos:station:DISL:MHPA:1,2014-11-01T20:00:00Z,30.6671,-87.9365,14.14,1111122 
DISL,ioos:station:DISL:MHPA:1,2014-11-01T20:30:00Z,30.6671,-87.9365,14.54,1111122 
DISL,ioos:station:DISL:MHPA:1,2014-11-01T21:00:00Z,30.6671,-87.9365,14.9,1111122 
DISL,ioos:station:DISL:MHPA:1,2014-11-01T21:30:00Z,30.6671,-87.9365,14.52,1111122 
DISL,ioos:station:DISL:MHPA:1,2014-11-01T22:00:00Z,30.6671,-87.9365,14.39,1111122 
DISL,ioos:station:DISL:MHPA:1,2014-11-01T22:30:00Z,30.6671,-87.9365,13.75,1111122 
DISL,ioos:station:DISL:MHPA:1,2014-11-01T23:00:00Z,30.6671,-87.9365,12.95,1111122 
DISL,ioos:station:DISL:MHPA:1,2014-11-01T23:30:00Z,30.6671,-87.9365,12.32,1111122 
DISL,ioos:station:DISL:MHPA:1,2014-11-02T00:00:00Z,30.6671,-87.9365,11.15,1111122 
DISL,ioos:station:DISL:MHPA:1,2014-11-02T00:30:00Z,30.6671,-87.9365,10.69,1111122 
DISL,ioos:station:DISL:MHPA:1,2014-11-02T01:00:00Z,30.6671,-87.9365,10.36,1111122 
DISL,ioos:station:DISL:MHPA:1,2014-11-02T01:30:00Z,30.6671,-87.9365,9.82,1111122 
DISL,ioos:station:DISL:MHPA:1,2014-11-02T02:00:00Z,30.6671,-87.9365,9.89,1111122 
DISL,ioos:station:DISL:MHPA:1,2014-11-02T02:30:00Z,30.6671,-87.9365,9.42,1111122 
DISL,ioos:station:DISL:MHPA:1,2014-11-02T03:00:00Z,30.6671,-87.9365,8.74,1111122 
DISL,ioos:station:DISL:MHPA:1,2014-11-02T03:30:00Z,30.6671,-87.9365,8.41,1111122 
DISL,ioos:station:DISL:MHPA:1,2014-11-02T04:00:00Z,30.6671,-87.9365,8.31,1111122 
DISL,ioos:station:DISL:MHPA:1,2014-11-02T04:30:00Z,30.6671,-87.9365,8.51,1111122 
DISL,ioos:station:DISL:MHPA:1,2014-11-02T05:00:00Z,30.6671,-87.9365,7.972,1111122 
DISL,ioos:station:DISL:MHPA:1,2014-11-02T05:30:00Z,30.6671,-87.9365,7.329,1111122 
DISL,ioos:station:DISL:MHPA:1,2014-11-02T06:00:00Z,30.6671,-87.9365,7.397,1111122 
DISL,ioos:station:DISL:MHPA:1,2014-11-02T06:30:00Z,30.6671,-87.9365,7.397,1111122 
DISL,ioos:station:DISL:MHPA:1,2014-11-02T07:00:00Z,30.6671,-87.9365,6.957,1111122 
DISL,ioos:station:DISL:MHPA:1,2014-11-02T07:30:00Z,30.6671,-87.9365,6.658,1111122 
DISL,ioos:station:DISL:MHPA:1,2014-11-02T08:00:00Z,30.6671,-87.9365,6.052,1111122 
DISL,ioos:station:DISL:MHPA:1,2014-11-02T08:30:00Z,30.6671,-87.9365,5.853,1111122 
DISL,ioos:station:DISL:MHPA:1,2014-11-02T09:00:00Z,30.6671,-87.9365,5.383,1111122 
DISL,ioos:station:DISL:MHPA:1,2014-11-02T09:30:00Z,30.6671,-87.9365,4.877,1111122 
DISL,ioos:station:DISL:MHPA:1,2014-11-02T10:00:00Z,30.6671,-87.9365,4.508,1111122 
DISL,ioos:station:DISL:MHPA:1,2014-11-02T10:30:00Z,30.6671,-87.9365,4.478,1111122 
DISL,ioos:station:DISL:MHPA:1,2014-11-02T11:00:00Z,30.6671,-87.9365,4.275,1111122 
DISL,ioos:station:DISL:MHPA:1,2014-11-02T11:30:00Z,30.6671,-87.9365,4.512,1111122 
DISL,ioos:station:DISL:MHPA:1,2014-11-02T12:00:00Z,30.6671,-87.9365,4.58,1111122 
DISL,ioos:station:DISL:MHPA:1,2014-11-02T12:30:00Z,30.6671,-87.9365,4.749,1111122 
DISL,ioos:station:DISL:MHPA:1,2014-11-02T13:00:00Z,30.6671,-87.9365,5.256,1111122 
DISL,ioos:station:DISL:MHPA:1,2014-11-02T13:30:00Z,30.6671,-87.9365,6.058,1111122 
DISL,ioos:station:DISL:MHPA:1,2014-11-02T14:00:00Z,30.6671,-87.9365,7.195,1111122 
DISL,ioos:station:DISL:MHPA:1,2014-11-02T14:30:00Z,30.6671,-87.9365,8.44,1111122 
DISL,ioos:station:DISL:MHPA:1,2014-11-02T15:00:00Z,30.6671,-87.9365,9.21,1111122 
DISL,ioos:station:DISL:MHPA:1,2014-11-02T15:30:00Z,30.6671,-87.9365,10.18,1111122 
DISL,ioos:station:DISL:MHPA:1,2014-11-02T16:00:00Z,30.6671,-87.9365,11.32,1111122 
DISL,ioos:station:DISL:MHPA:1,2014-11-02T16:30:00Z,30.6671,-87.9365,11.93,1111122 
DISL,ioos:station:DISL:MHPA:1,2014-11-02T17:00:00Z,30.6671,-87.9365,12.63,1111122 
DISL,ioos:station:DISL:MHPA:1,2014-11-02T17:30:00Z,30.6671,-87.9365,13.46,1111122 
DISL,ioos:station:DISL:MHPA:1,2014-11-02T18:00:00Z,30.6671,-87.9365,14.0,1111122 
DISL,ioos:station:DISL:MHPA:1,2014-11-02T18:30:00Z,30.6671,-87.9365,14.78,1111122 
DISL,ioos:station:DISL:MHPA:1,2014-11-02T19:00:00Z,30.6671,-87.9365,15.45,1111122 
DISL,ioos:station:DISL:MHPA:1,2014-11-02T19:30:00Z,30.6671,-87.9365,15.69,1111122 
DISL,ioos:station:DISL:MHPA:1,2014-11-02T20:00:00Z,30.6671,-87.9365,16.25,1111122 
DISL,ioos:station:DISL:MHPA:1,2014-11-02T20:30:00Z,30.6671,-87.9365,16.62,1111122 
DISL,ioos:station:DISL:MHPA:1,2014-11-02T21:00:00Z,30.6671,-87.9365,16.82,1111122 
DISL,ioos:station:DISL:MHPA:1,2014-11-02T21:30:00Z,30.6671,-87.9365,17.25,1111122 
DISL,ioos:station:DISL:MHPA:1,2014-11-02T22:00:00Z,30.6671,-87.9365,17.01,1111122 
DISL,ioos:station:DISL:MHPA:1,2014-11-02T22:30:00Z,30.6671,-87.9365,16.78,1111122 
DISL,ioos:station:DISL:MHPA:1,2014-11-02T23:00:00Z,30.6671,-87.9365,15.47,1111122 
DISL,ioos:station:DISL:MHPA:1,2014-11-02T23:30:00Z,30.6671,-87.9365,14.53,1111122 
DISL,ioos:station:DISL:MHPA:1,2014-11-03T00:00:00Z,30.6671,-87.9365,13.67,1111122 
DISL,ioos:station:DISL:MHPA:1,2014-11-03T00:30:00Z,30.6671,-87.9365,13.18,1111122 
DISL,ioos:station:DISL:MHPA:1,2014-11-03T01:00:00Z,30.6671,-87.9365,12.64,1111122 
DISL,ioos:station:DISL:MHPA:1,2014-11-03T01:30:00Z,30.6671,-87.9365,11.97,1111122 
DISL,ioos:station:DISL:MHPA:1,2014-11-03T02:00:00Z,30.6671,-87.9365,11.47,1111122 
DISL,ioos:station:DISL:MHPA:1,2014-11-03T02:30:00Z,30.6671,-87.9365,11.06,1111122 
DISL,ioos:station:DISL:MHPA:1,2014-11-03T03:00:00Z,30.6671,-87.9365,10.63,1111122 
DISL,ioos:station:DISL:MHPA:1,2014-11-03T03:30:00Z,30.6671,-87.9365,10.16,1111122 
DISL,ioos:station:DISL:MHPA:1,2014-11-03T04:00:00Z,30.6671,-87.9365,10.83,1111122 
DISL,ioos:station:DISL:MHPA:1,2014-11-03T04:30:00Z,30.6671,-87.9365,11.24,1111122 
DISL,ioos:station:DISL:MHPA:1,2014-11-03T05:00:00Z,30.6671,-87.9365,11.41,1111122 
DISL,ioos:station:DISL:MHPA:1,2014-11-03T05:30:00Z,30.6671,-87.9365,9.15,1111122 
DISL,ioos:station:DISL:MHPA:1,2014-11-03T06:00:00Z,30.6671,-87.9365,9.48,1111122 
DISL,ioos:station:DISL:MHPA:1,2014-11-03T06:30:00Z,30.6671,-87.9365,9.92,1111122 
DISL,ioos:station:DISL:MHPA:1,2014-11-03T07:00:00Z,30.6671,-87.9365,9.96,1111122 
DISL,ioos:station:DISL:MHPA:1,2014-11-03T07:30:00Z,30.6671,-87.9365,9.9,1111122 
DISL,ioos:station:DISL:MHPA:1,2014-11-03T08:00:00Z,30.6671,-87.9365,9.42,1111122 
DISL,ioos:station:DISL:MHPA:1,2014-11-03T08:30:00Z,30.6671,-87.9365,9.56,1111122 
DISL,ioos:station:DISL:MHPA:1,2014-11-03T09:00:00Z,30.6671,-87.9365,10.34,1111122 
DISL,ioos:station:DISL:MHPA:1,2014-11-03T09:30:00Z,30.6671,-87.9365,9.26,1111122 
DISL,ioos:station:DISL:MHPA:1,2014-11-03T10:00:00Z,30.6671,-87.9365,9.12,1111122 
DISL,ioos:station:DISL:MHPA:1,2014-11-03T10:30:00Z,30.6671,-87.9365,8.38,1111122 
DISL,ioos:station:DISL:MHPA:1,2014-11-03T11:00:00Z,30.6671,-87.9365,8.82,1111122 
DISL,ioos:station:DISL:MHPA:1,2014-11-03T11:30:00Z,30.6671,-87.9365,9.93,1111122 
DISL,ioos:station:DISL:MHPA:1,2014-11-03T12:00:00Z,30.6671,-87.9365,9.83,1111122 
DISL,ioos:station:DISL:MHPA:1,2014-11-03T12:30:00Z,30.6671,-87.9365,9.86,1111122 
DISL,ioos:station:DISL:MHPA:1,2014-11-03T13:00:00Z,30.6671,-87.9365,10.84,1111122 
DISL,ioos:station:DISL:MHPA:1,2014-11-03T13:30:00Z,30.6671,-87.9365,11.84,1111122 
DISL,ioos:station:DISL:MHPA:1,2014-11-03T14:00:00Z,30.6671,-87.9365,13.01,1111122 
DISL,ioos:station:DISL:MHPA:1,2014-11-03T14:30:00Z,30.6671,-87.9365,14.46,1111122 
DISL,ioos:station:DISL:MHPA:1,2014-11-03T15:00:00Z,30.6671,-87.9365,15.73,1111122 
DISL,ioos:station:DISL:MHPA:1,2014-11-03T15:30:00Z,30.6671,-87.9365,16.39,1111122 
DISL,ioos:station:DISL:MHPA:1,2014-11-03T16:00:00Z,30.6671,-87.9365,17.12,1111122 
DISL,ioos:station:DISL:MHPA:1,2014-11-03T16:30:00Z,30.6671,-87.9365,17.9,1111122 
DISL,ioos:station:DISL:MHPA:1,2014-11-03T17:00:00Z,30.6671,-87.9365,18.33,1111122 
DISL,ioos:station:DISL:MHPA:1,2014-11-03T17:30:00Z,30.6671,-87.9365,18.96,1111122 
DISL,ioos:station:DISL:MHPA:1,2014-11-03T18:00:00Z,30.6671,-87.9365,19.47,1111122 
DISL,ioos:station:DISL:MHPA:1,2014-11-03T18:30:00Z,30.6671,-87.9365,19.64,1111122 
DISL,ioos:station:DISL:MHPA:1,2014-11-03T19:00:00Z,30.6671,-87.9365,18.83,1111122 
DISL,ioos:station:DISL:MHPA:1,2014-11-03T19:30:00Z,30.6671,-87.9365,18.36,1111122 
DISL,ioos:station:DISL:MHPA:1,2014-11-03T20:00:00Z,30.6671,-87.9365,18.29,1111122 
DISL,ioos:station:DISL:MHPA:1,2014-11-03T20:30:00Z,30.6671,-87.9365,18.56,1111122 
DISL,ioos:station:DISL:MHPA:1,2014-11-03T21:00:00Z,30.6671,-87.9365,18.52,1111122 
DISL,ioos:station:DISL:MHPA:1,2014-11-03T21:30:00Z,30.6671,-87.9365,18.62,1111122 
DISL,ioos:station:DISL:MHPA:1,2014-11-03T22:00:00Z,30.6671,-87.9365,18.56,1111122 
DISL,ioos:station:DISL:MHPA:1,2014-11-03T22:30:00Z,30.6671,-87.9365,18.9,1111122 
DISL,ioos:station:DISL:MHPA:1,2014-11-03T23:00:00Z,30.6671,-87.9365,18.17,1111122 
DISL,ioos:station:DISL:MHPA:1,2014-11-03T23:30:00Z,30.6671,-87.9365,17.26,1111122 
DISL,ioos:station:DISL:MHPA:1,2014-11-04T00:00:00Z,30.6671,-87.9365,16.42,1111122 
DISL,ioos:station:DISL:MHPA:1,2014-11-04T00:30:00Z,30.6671,-87.9365,16.13,1111122 
DISL,ioos:station:DISL:MHPA:1,2014-11-04T01:00:00Z,30.6671,-87.9365,15.62,1111122 
DISL,ioos:station:DISL:MHPA:1,2014-11-04T01:30:00Z,30.6671,-87.9365,15.39,1111122 
DISL,ioos:station:DISL:MHPA:1,2014-11-04T02:00:00Z,30.6671,-87.9365,15.19,1111122 
DISL,ioos:station:DISL:MHPA:1,2014-11-04T02:30:00Z,30.6671,-87.9365,15.36,1111122 
DISL,ioos:station:DISL:MHPA:1,2014-11-04T03:00:00Z,30.6671,-87.9365,15.13,1111122 
DISL,ioos:station:DISL:MHPA:1,2014-11-04T03:30:00Z,30.6671,-87.9365,14.79,1111122 
DISL,ioos:station:DISL:MHPA:1,2014-11-04T04:00:00Z,30.6671,-87.9365,14.59,1111122 
DISL,ioos:station:DISL:MHPA:1,2014-11-04T04:30:00Z,30.6671,-87.9365,14.8,1111122 
DISL,ioos:station:DISL:MHPA:1,2014-11-04T05:00:00Z,30.6671,-87.9365,14.73,1111122 
DISL,ioos:station:DISL:MHPA:1,2014-11-04T05:30:00Z,30.6671,-87.9365,14.36,1111122 
DISL,ioos:station:DISL:MHPA:1,2014-11-04T06:00:00Z,30.6671,-87.9365,14.49,1111122 
DISL,ioos:station:DISL:MHPA:1,2014-11-04T06:30:00Z,30.6671,-87.9365,14.56,1111122 
DISL,ioos:station:DISL:MHPA:1,2014-11-04T07:00:00Z,30.6671,-87.9365,14.46,1111122 
DISL,ioos:station:DISL:MHPA:1,2014-11-04T07:30:00Z,30.6671,-87.9365,14.76,1111122 
DISL,ioos:station:DISL:MHPA:1,2014-11-04T08:00:00Z,30.6671,-87.9365,14.73,1111122 
DISL,ioos:station:DISL:MHPA:1,2014-11-04T08:30:00Z,30.6671,-87.9365,14.7,1111122 
DISL,ioos:station:DISL:MHPA:1,2014-11-04T09:00:00Z,30.6671,-87.9365,14.22,1111122 
DISL,ioos:station:DISL:MHPA:1,2014-11-04T09:30:00Z,30.6671,-87.9365,13.78,1111122 
DISL,ioos:station:DISL:MHPA:1,2014-11-04T10:00:00Z,30.6671,-87.9365,13.78,1111122 
DISL,ioos:station:DISL:MHPA:1,2014-11-04T10:30:00Z,30.6671,-87.9365,13.85,1111122 
DISL,ioos:station:DISL:MHPA:1,2014-11-04T11:00:00Z,30.6671,-87.9365,13.48,1111122 
DISL,ioos:station:DISL:MHPA:1,2014-11-04T11:30:00Z,30.6671,-87.9365,13.38,1111122 
DISL,ioos:station:DISL:MHPA:1,2014-11-04T12:00:00Z,30.6671,-87.9365,13.34,1111122 
DISL,ioos:station:DISL:MHPA:1,2014-11-04T12:30:00Z,30.6671,-87.9365,13.58,1111122 
DISL,ioos:station:DISL:MHPA:1,2014-11-04T13:00:00Z,30.6671,-87.9365,14.22,1111122 
DISL,ioos:station:DISL:MHPA:1,2014-11-04T13:30:00Z,30.6671,-87.9365,15.03,1111122 
DISL,ioos:station:DISL:MHPA:1,2014-11-04T14:00:00Z,30.6671,-87.9365,15.83,1111122 
DISL,ioos:station:DISL:MHPA:1,2014-11-04T14:30:00Z,30.6671,-87.9365,17.07,1111122 
DISL,ioos:station:DISL:MHPA:1,2014-11-04T15:00:00Z,30.6671,-87.9365,18.61,1111122 
DISL,ioos:station:DISL:MHPA:1,2014-11-04T15:30:00Z,30.6671,-87.9365,19.17,1111122 
DISL,ioos:station:DISL:MHPA:1,2014-11-04T16:00:00Z,30.6671,-87.9365,20.21,1111122 
DISL,ioos:station:DISL:MHPA:1,2014-11-04T16:30:00Z,30.6671,-87.9365,20.67,1111122 
DISL,ioos:station:DISL:MHPA:1,2014-11-04T17:00:00Z,30.6671,-87.9365,21.44,1111122 
DISL,ioos:station:DISL:MHPA:1,2014-11-04T17:30:00Z,30.6671,-87.9365,21.34,1111122 
DISL,ioos:station:DISL:MHPA:1,2014-11-04T18:00:00Z,30.6671,-87.9365,21.17,1111122 
DISL,ioos:station:DISL:MHPA:1,2014-11-04T18:30:00Z,30.6671,-87.9365,21.98,1111122 
DISL,ioos:station:DISL:MHPA:1,2014-11-04T19:00:00Z,30.6671,-87.9365,21.23,1111122 
DISL,ioos:station:DISL:MHPA:1,2014-11-04T19:30:00Z,30.6671,-87.9365,21.34,1111122 
DISL,ioos:station:DISL:MHPA:1,2014-11-04T20:00:00Z,30.6671,-87.9365,21.37,1111122 
DISL,ioos:station:DISL:MHPA:1,2014-11-04T20:30:00Z,30.6671,-87.9365,21.03,1111122 
DISL,ioos:station:DISL:MHPA:1,2014-11-04T21:00:00Z,30.6671,-87.9365,21.27,1111122 
DISL,ioos:station:DISL:MHPA:1,2014-11-04T21:30:00Z,30.6671,-87.9365,21.3,1111122 
DISL,ioos:station:DISL:MHPA:1,2014-11-04T22:00:00Z,30.6671,-87.9365,21.44,1111122 
DISL,ioos:station:DISL:MHPA:1,2014-11-04T22:30:00Z,30.6671,-87.9365,21.5,1111122 
DISL,ioos:station:DISL:MHPA:1,2014-11-04T23:00:00Z,30.6671,-87.9365,21.34,1111122 
DISL,ioos:station:DISL:MHPA:1,2014-11-04T23:30:00Z,30.6671,-87.9365,20.85,1111122 
DISL,ioos:station:DISL:MHPA:1,2014-11-05T00:00:00Z,30.6671,-87.9365,20.21,1111122 
DISL,ioos:station:DISL:MHPA:1,2014-11-05T00:30:00Z,30.6671,-87.9365,19.81,1111122 
DISL,ioos:station:DISL:MHPA:1,2014-11-05T01:00:00Z,30.6671,-87.9365,19.58,1111122 
DISL,ioos:station:DISL:MHPA:1,2014-11-05T01:30:00Z,30.6671,-87.9365,19.35,1111122 
DISL,ioos:station:DISL:MHPA:1,2014-11-05T02:00:00Z,30.6671,-87.9365,19.08,1111122 
DISL,ioos:station:DISL:MHPA:1,2014-11-05T02:30:00Z,30.6671,-87.9365,18.68,1111122 
DISL,ioos:station:DISL:MHPA:1,2014-11-05T03:00:00Z,30.6671,-87.9365,18.44,1111122 
DISL,ioos:station:DISL:MHPA:1,2014-11-05T03:30:00Z,30.6671,-87.9365,18.37,1111122 
DISL,ioos:station:DISL:MHPA:1,2014-11-05T04:00:00Z,30.6671,-87.9365,18.47,1111122 
DISL,ioos:station:DISL:MHPA:1,2014-11-05T04:30:00Z,30.6671,-87.9365,18.47,1111122 
DISL,ioos:station:DISL:MHPA:1,2014-11-05T05:00:00Z,30.6671,-87.9365,18.58,1111122 
DISL,ioos:station:DISL:MHPA:1,2014-11-05T05:30:00Z,30.6671,-87.9365,18.64,1111122 
DISL,ioos:station:DISL:MHPA:1,2014-11-05T06:00:00Z,30.6671,-87.9365,18.44,1111122 
DISL,ioos:station:DISL:MHPA:1,2014-11-05T06:30:00Z,30.6671,-87.9365,18.37,1111122 
DISL,ioos:station:DISL:MHPA:1,2014-11-05T07:00:00Z,30.6671,-87.9365,18.27,1111122 
DISL,ioos:station:DISL:MHPA:1,2014-11-05T07:30:00Z,30.6671,-87.9365,18.44,1111122 
DISL,ioos:station:DISL:MHPA:1,2014-11-05T08:00:00Z,30.6671,-87.9365,18.71,1111122 
DISL,ioos:station:DISL:MHPA:1,2014-11-05T08:30:00Z,30.6671,-87.9365,18.51,1111122 
DISL,ioos:station:DISL:MHPA:1,2014-11-05T09:00:00Z,30.6671,-87.9365,18.41,1111122 
DISL,ioos:station:DISL:MHPA:1,2014-11-05T09:30:00Z,30.6671,-87.9365,18.34,1111122 
DISL,ioos:station:DISL:MHPA:1,2014-11-05T10:00:00Z,30.6671,-87.9365,18.0,1111122 
DISL,ioos:station:DISL:MHPA:1,2014-11-05T10:30:00Z,30.6671,-87.9365,18.07,1111122 
DISL,ioos:station:DISL:MHPA:1,2014-11-05T11:00:00Z,30.6671,-87.9365,18.58,1111122 
DISL,ioos:station:DISL:MHPA:1,2014-11-05T11:30:00Z,30.6671,-87.9365,18.48,1111122 
DISL,ioos:station:DISL:MHPA:1,2014-11-05T12:00:00Z,30.6671,-87.9365,18.17,1111122 
DISL,ioos:station:DISL:MHPA:1,2014-11-05T12:30:00Z,30.6671,-87.9365,18.17,1111122 
DISL,ioos:station:DISL:MHPA:1,2014-11-05T13:00:00Z,30.6671,-87.9365,18.95,1111122 
DISL,ioos:station:DISL:MHPA:1,2014-11-05T13:30:00Z,30.6671,-87.9365,19.49,1111122 
DISL,ioos:station:DISL:MHPA:1,2014-11-05T14:00:00Z,30.6671,-87.9365,19.66,1111122 
DISL,ioos:station:DISL:MHPA:1,2014-11-05T14:30:00Z,30.6671,-87.9365,20.12,1111122 
DISL,ioos:station:DISL:MHPA:1,2014-11-05T15:00:00Z,30.6671,-87.9365,20.82,1111122 
DISL,ioos:station:DISL:MHPA:1,2014-11-05T15:30:00Z,30.6671,-87.9365,21.93,1111122 
DISL,ioos:station:DISL:MHPA:1,2014-11-05T16:00:00Z,30.6671,-87.9365,21.98,1111122 
DISL,ioos:station:DISL:MHPA:1,2014-11-05T16:30:00Z,30.6671,-87.9365,22.08,1111122 
DISL,ioos:station:DISL:MHPA:1,2014-11-05T17:00:00Z,30.6671,-87.9365,21.84,1111122 
DISL,ioos:station:DISL:MHPA:1,2014-11-05T17:30:00Z,30.6671,-87.9365,21.6,1111122 
DISL,ioos:station:DISL:MHPA:1,2014-11-05T18:00:00Z,30.6671,-87.9365,21.6,1111122 
DISL,ioos:station:DISL:MHPA:1,2014-11-05T18:30:00Z,30.6671,-87.9365,21.91,1111122 
DISL,ioos:station:DISL:MHPA:1,2014-11-05T19:00:00Z,30.6671,-87.9365,21.4,1111122 
DISL,ioos:station:DISL:MHPA:1,2014-11-05T19:30:00Z,30.6671,-87.9365,21.5,1111122 
DISL,ioos:station:DISL:MHPA:1,2014-11-05T20:00:00Z,30.6671,-87.9365,21.57,1111122 
DISL,ioos:station:DISL:MHPA:1,2014-11-05T20:30:00Z,30.6671,-87.9365,21.37,1111122 
DISL,ioos:station:DISL:MHPA:1,2014-11-05T21:00:00Z,30.6671,-87.9365,21.28,1111122 
DISL,ioos:station:DISL:MHPA:1,2014-11-05T21:30:00Z,30.6671,-87.9365,21.29,1111122 
DISL,ioos:station:DISL:MHPA:1,2014-11-05T22:00:00Z,30.6671,-87.9365,21.56,1111122 
DISL,ioos:station:DISL:MHPA:1,2014-11-05T22:30:00Z,30.6671,-87.9365,21.12,1111122 
DISL,ioos:station:DISL:MHPA:1,2014-11-05T23:00:00Z,30.6671,-87.9365,20.85,1111122 
DISL,ioos:station:DISL:MHPA:1,2014-11-05T23:30:00Z,30.6671,-87.9365,20.93,1111122 
DISL,ioos:station:DISL:MHPA:1,2014-11-06T00:00:00Z,30.6671,-87.9365,21.29,1111122 
DISL,ioos:station:DISL:MHPA:1,2014-11-06T00:30:00Z,30.6671,-87.9365,21.53,1111122 
DISL,ioos:station:DISL:MHPA:1,2014-11-06T01:00:00Z,30.6671,-87.9365,21.29,1111122 
DISL,ioos:station:DISL:MHPA:1,2014-11-06T01:30:00Z,30.6671,-87.9365,21.29,1111122 
DISL,ioos:station:DISL:MHPA:1,2014-11-06T02:00:00Z,30.6671,-87.9365,21.09,1111122 
DISL,ioos:station:DISL:MHPA:1,2014-11-06T02:30:00Z,30.6671,-87.9365,21.02,1111122 
DISL,ioos:station:DISL:MHPA:1,2014-11-06T03:00:00Z,30.6671,-87.9365,20.45,1111122 
DISL,ioos:station:DISL:MHPA:1,2014-11-06T03:30:00Z,30.6671,-87.9365,19.92,1111122 
DISL,ioos:station:DISL:MHPA:1,2014-11-06T04:00:00Z,30.6671,-87.9365,20.05,1111122 
DISL,ioos:station:DISL:MHPA:1,2014-11-06T04:30:00Z,30.6671,-87.9365,20.19,1111122 
DISL,ioos:station:DISL:MHPA:1,2014-11-06T05:00:00Z,30.6671,-87.9365,20.09,1111122 
DISL,ioos:station:DISL:MHPA:1,2014-11-06T05:30:00Z,30.6671,-87.9365,20.26,1111122 
DISL,ioos:station:DISL:MHPA:1,2014-11-06T06:00:00Z,30.6671,-87.9365,20.29,1111122 
DISL,ioos:station:DISL:MHPA:1,2014-11-06T06:30:00Z,30.6671,-87.9365,20.36,1111122 
DISL,ioos:station:DISL:MHPA:1,2014-11-06T07:00:00Z,30.6671,-87.9365,20.19,1111122 
DISL,ioos:station:DISL:MHPA:1,2014-11-06T07:30:00Z,30.6671,-87.9365,19.78,1111122 
DISL,ioos:station:DISL:MHPA:1,2014-11-06T08:00:00Z,30.6671,-87.9365,19.52,1111122 
DISL,ioos:station:DISL:MHPA:1,2014-11-06T08:30:00Z,30.6671,-87.9365,19.39,1111122 
DISL,ioos:station:DISL:MHPA:1,2014-11-06T09:00:00Z,30.6671,-87.9365,19.05,1111122 
DISL,ioos:station:DISL:MHPA:1,2014-11-06T09:30:00Z,30.6671,-87.9365,18.85,1111122 
DISL,ioos:station:DISL:MHPA:1,2014-11-06T10:00:00Z,30.6671,-87.9365,18.74,1111122 
DISL,ioos:station:DISL:MHPA:1,2014-11-06T10:30:00Z,30.6671,-87.9365,18.74,1111122 
DISL,ioos:station:DISL:MHPA:1,2014-11-06T11:00:00Z,30.6671,-87.9365,18.88,1111122 
DISL,ioos:station:DISL:MHPA:1,2014-11-06T11:30:00Z,30.6671,-87.9365,18.71,1111122 
DISL,ioos:station:DISL:MHPA:1,2014-11-06T12:00:00Z,30.6671,-87.9365,18.81,1111122 
DISL,ioos:station:DISL:MHPA:1,2014-11-06T12:30:00Z,30.6671,-87.9365,18.95,1111122 
DISL,ioos:station:DISL:MHPA:1,2014-11-06T13:00:00Z,30.6671,-87.9365,19.08,1111122 
DISL,ioos:station:DISL:MHPA:1,2014-11-06T13:30:00Z,30.6671,-87.9365,18.88,1111122 
DISL,ioos:station:DISL:MHPA:1,2014-11-06T14:00:00Z,30.6671,-87.9365,19.49,1111122 
DISL,ioos:station:DISL:MHPA:1,2014-11-06T14:30:00Z,30.6671,-87.9365,20.15,1111122 
DISL,ioos:station:DISL:MHPA:1,2014-11-06T15:00:00Z,30.6671,-87.9365,20.42,1111122 
DISL,ioos:station:DISL:MHPA:1,2014-11-06T15:30:00Z,30.6671,-87.9365,21.12,1111122 
DISL,ioos:station:DISL:MHPA:1,2014-11-06T16:00:00Z,30.6671,-87.9365,22.19,1111122 
DISL,ioos:station:DISL:MHPA:1,2014-11-06T16:30:00Z,30.6671,-87.9365,23.09,1111122 
DISL,ioos:station:DISL:MHPA:1,2014-11-06T17:00:00Z,30.6671,-87.9365,22.75,1111122 
DISL,ioos:station:DISL:MHPA:1,2014-11-06T17:30:00Z,30.6671,-87.9365,23.92,1111122 
DISL,ioos:station:DISL:MHPA:1,2014-11-06T18:00:00Z,30.6671,-87.9365,24.32,1111122 
DISL,ioos:station:DISL:MHPA:1,2014-11-06T18:30:00Z,30.6671,-87.9365,23.51,1111122 
DISL,ioos:station:DISL:MHPA:1,2014-11-06T19:00:00Z,30.6671,-87.9365,23.02,1111122 
DISL,ioos:station:DISL:MHPA:1,2014-11-06T19:30:00Z,30.6671,-87.9365,22.62,1111122 
DISL,ioos:station:DISL:MHPA:1,2014-11-06T20:00:00Z,30.6671,-87.9365,22.89,1111122 
DISL,ioos:station:DISL:MHPA:1,2014-11-06T20:30:00Z,30.6671,-87.9365,22.82,1111122 
DISL,ioos:station:DISL:MHPA:1,2014-11-06T21:00:00Z,30.6671,-87.9365,23.06,1111122 
DISL,ioos:station:DISL:MHPA:1,2014-11-06T21:30:00Z,30.6671,-87.9365,23.36,1111122 
DISL,ioos:station:DISL:MHPA:1,2014-11-06T22:00:00Z,30.6671,-87.9365,20.93,1111122 
DISL,ioos:station:DISL:MHPA:1,2014-11-06T22:30:00Z,30.6671,-87.9365,20.74,1111122 
DISL,ioos:station:DISL:MHPA:1,2014-11-06T23:00:00Z,30.6671,-87.9365,20.21,1111122 
DISL,ioos:station:DISL:MHPA:1,2014-11-06T23:30:00Z,30.6671,-87.9365,19.94,1111122 
DISL,ioos:station:DISL:MHPA:1,2014-11-07T00:00:00Z,30.6671,-87.9365,19.95,1111122 